When you browse on this site, cookies collect data to enhance your experience and personalize the content and advertising you see.
Visit our Privacy Policy to learn more. By continuing to use the site, you agree to this use of cookies and data.

Stündliche Wetter Taul

Heute, 4 Juli, Samstag

Zeit Temperatur Niederschläge Wind Luftdruck Luftfeuchtigkeit
00:00 +23°C° 0 mm 2 m/S 739 mmHg 70%
01:00 +23°C° 0 mm 2 m/S 740 mmHg 72%
02:00 +23°C° 0 mm 2 m/S 740 mmHg 76%
03:00 +21°C° 0.1 mm 2 m/S 740 mmHg 79%
04:00 +21°C° 0.1 mm 3 m/S 740 mmHg 82%
05:00 +21°C° 0.1 mm 3 m/S 740 mmHg 86%
06:00 +21°C° 0.1 mm 3 m/S 741 mmHg 86%
07:00 +21°C° 0.1 mm 3 m/S 741 mmHg 86%
08:00 +21°C° 0.1 mm 2 m/S 741 mmHg 86%
09:00 +23°C° 0.1 mm 2 m/S 741 mmHg 85%
10:00 +23°C° 0.1 mm 2 m/S 741 mmHg 83%
11:00 +23°C° 0.1 mm 2 m/S 741 mmHg 82%
12:00 +25°C° 0.1 mm 2 m/S 741 mmHg 77%
13:00 +26°C° 0.1 mm 2 m/S 741 mmHg 72%
14:00 +27°C° 0.1 mm 2 m/S 741 mmHg 67%
15:00 +27°C° 0.7 mm 2 m/S 741 mmHg 68%
16:00 +27°C° 0.7 mm 2 m/S 741 mmHg 68%
17:00 +27°C° 0.7 mm 2 m/S 741 mmHg 69%
18:00 +26°C° 1.3 mm 2 m/S 741 mmHg 75%
19:00 +24°C° 1.3 mm 2 m/S 741 mmHg 81%
20:00 +23°C° 1.3 mm 2 m/S 741 mmHg 87%
21:00 +23°C° 0.3 mm 2 m/S 741 mmHg 88%
22:00 +21°C° 0.3 mm 2 m/S 741 mmHg 89%
23:00 +21°C° 0.3 mm 2 m/S 741 mmHg 90%

Morgen, 5 Juli, Sonntag

Zeit Temperatur Niederschläge Wind Luftdruck Luftfeuchtigkeit
00:00 +21°C° 0.3 mm 2 m/S 741 mmHg 91%
01:00 +21°C° 0.3 mm 2 m/S 741 mmHg 92%
02:00 +20°C° 0.3 mm 3 m/S 741 mmHg 93%
03:00 +20°C° 0 mm 3 m/S 741 mmHg 93%
04:00 +19°C° 0 mm 3 m/S 741 mmHg 93%
05:00 +19°C° 0 mm 3 m/S 741 mmHg 94%
06:00 +20°C° 0 mm 3 m/S 741 mmHg 89%
07:00 +21°C° 0 mm 3 m/S 741 mmHg 85%
08:00 +24°C° 0 mm 3 m/S 741 mmHg 81%
09:00 +25°C° 0 mm 4 m/S 741 mmHg 75%
10:00 +26°C° 0 mm 4 m/S 741 mmHg 69%
11:00 +28°C° 0 mm 4 m/S 742 mmHg 63%
12:00 +28°C° 0 mm 4 m/S 741 mmHg 62%
13:00 +28°C° 0 mm 4 m/S 741 mmHg 61%
14:00 +29°C° 0 mm 4 m/S 741 mmHg 59%
15:00 +29°C° 0 mm 4 m/S 741 mmHg 60%
16:00 +28°C° 0 mm 4 m/S 741 mmHg 61%
17:00 +28°C° 0 mm 4 m/S 741 mmHg 62%
18:00 +27°C° 0 mm 3 m/S 741 mmHg 67%
19:00 +25°C° 0 mm 3 m/S 741 mmHg 73%
20:00 +24°C° 0 mm 2 m/S 741 mmHg 78%
21:00 +23°C° 0 mm 2 m/S 741 mmHg 80%
22:00 +21°C° 0 mm 2 m/S 741 mmHg 82%
23:00 +20°C° 0 mm 2 m/S 741 mmHg 85%

übermorgen, 6 Juli, Montag

Zeit Temperatur Niederschläge Wind Luftdruck Luftfeuchtigkeit
00:00 +20°C° 0 mm 2 m/S 741 mmHg 86%
01:00 +19°C° 0 mm 2 m/S 741 mmHg 88%
02:00 +19°C° 0 mm 2 m/S 741 mmHg 90%
03:00 +19°C° 0 mm 2 m/S 740 mmHg 91%
04:00 +19°C° 0 mm 2 m/S 740 mmHg 91%
05:00 +18°C° 0 mm 2 m/S 740 mmHg 91%
06:00 +20°C° 0 mm 2 m/S 740 mmHg 86%
07:00 +23°C° 0 mm 2 m/S 740 mmHg 80%
08:00 +24°C° 0 mm 2 m/S 740 mmHg 74%
09:00 +26°C° 0 mm 1 m/S 740 mmHg 68%
10:00 +27°C° 0 mm 1 m/S 740 mmHg 63%
11:00 +27°C° 0 mm 0 m/S 739 mmHg 57%
12:00 +27°C° 0 mm 0 m/S 739 mmHg 53%
13:00 +28°C° 0 mm 0 m/S 739 mmHg 49%
14:00 +29°C° 0 mm 0 m/S 738 mmHg 46%
15:00 +29°C° 0 mm 0 m/S 738 mmHg 46%
16:00 +31°C° 0 mm 1 m/S 737 mmHg 45%
17:00 +30°C° 0 mm 1 m/S 737 mmHg 45%
18:00 +29°C° 0 mm 1 m/S 737 mmHg 52%
19:00 +27°C° 0 mm 1 m/S 737 mmHg 60%
20:00 +25°C° 0 mm 2 m/S 737 mmHg 67%
21:00 +25°C° 0 mm 2 m/S 736 mmHg 69%
22:00 +24°C° 0 mm 1 m/S 736 mmHg 71%
23:00 +23°C° 0 mm 1 m/S 736 mmHg 73%

7 Juli, Dienstag

Zeit Temperatur Niederschläge Wind Luftdruck Luftfeuchtigkeit
00:00 +23°C° 0 mm 1 m/S 736 mmHg 73%
01:00 +23°C° 0 mm 1 m/S 736 mmHg 73%
02:00 +22°C° 0 mm 1 m/S 736 mmHg 74%
03:00 +22°C° 0 mm 1 m/S 736 mmHg 76%
04:00 +22°C° 0 mm 1 m/S 736 mmHg 78%
05:00 +22°C° 0 mm 1 m/S 735 mmHg 80%
06:00 +23°C° 0.3 mm 1 m/S 736 mmHg 77%
07:00 +24°C° 0.3 mm 1 m/S 736 mmHg 74%
08:00 +26°C° 0.3 mm 2 m/S 736 mmHg 72%
09:00 +26°C° 1.4 mm 2 m/S 736 mmHg 68%
10:00 +27°C° 1.4 mm 1 m/S 736 mmHg 64%
11:00 +28°C° 1.4 mm 1 m/S 736 mmHg 60%
12:00 +27°C° 1.4 mm 3 m/S 736 mmHg 64%
13:00 +27°C° 1.3 mm 4 m/S 736 mmHg 68%
14:00 +26°C° 1.3 mm 5 m/S 736 mmHg 73%
15:00 +23°C° 1.4 mm 6 m/S 736 mmHg 79%
16:00 +21°C° 1.4 mm 7 m/S 736 mmHg 85%
17:00 +17°C° 1.4 mm 8 m/S 737 mmHg 91%
18:00 +16°C° 0.4 mm 8 m/S 737 mmHg 91%
19:00 +15°C° 0.4 mm 8 m/S 737 mmHg 91%
20:00 +13°C° 0.4 mm 8 m/S 738 mmHg 91%
21:00 +13°C° 0.1 mm 8 m/S 738 mmHg 90%
22:00 +12°C° 0.1 mm 8 m/S 738 mmHg 90%
23:00 +12°C° 0.1 mm 8 m/S 739 mmHg 90%

8 Juli, Mittwoch

Zeit Temperatur Niederschläge Wind Luftdruck Luftfeuchtigkeit
00:00 +12°C° 0.3 mm 8 m/S 739 mmHg 90%
01:00 +12°C° 0.3 mm 8 m/S 739 mmHg 90%
02:00 +11°C° 0.3 mm 8 m/S 739 mmHg 91%
03:00 +11°C° 0.4 mm 8 m/S 739 mmHg 91%
04:00 +12°C° 0.4 mm 7 m/S 740 mmHg 91%
05:00 +12°C° 0.4 mm 7 m/S 740 mmHg 91%
06:00 +12°C° 0.1 mm 7 m/S 740 mmHg 89%
07:00 +12°C° 0.1 mm 7 m/S 741 mmHg 87%
08:00 +14°C° 0.1 mm 7 m/S 741 mmHg 85%
09:00 +15°C° 0.1 mm 8 m/S 741 mmHg 79%
10:00 +16°C° 0.1 mm 8 m/S 742 mmHg 72%
11:00 +18°C° 0.1 mm 8 m/S 742 mmHg 66%
12:00 +18°C° 0 mm 8 m/S 742 mmHg 63%
13:00 +18°C° 0 mm 7 m/S 742 mmHg 61%
14:00 +20°C° 0 mm 7 m/S 743 mmHg 58%
15:00 +20°C° 0 mm 7 m/S 743 mmHg 59%
16:00 +20°C° 0 mm 6 m/S 743 mmHg 60%
17:00 +20°C° 0 mm 6 m/S 743 mmHg 61%
18:00 +19°C° 0 mm 5 m/S 743 mmHg 67%
19:00 +18°C° 0 mm 4 m/S 743 mmHg 73%
20:00 +16°C° 0 mm 3 m/S 743 mmHg 80%
21:00 +16°C° 0 mm 3 m/S 744 mmHg 82%
22:00 +15°C° 0 mm 2 m/S 744 mmHg 84%
23:00 +14°C° 0 mm 2 m/S 745 mmHg 86%

9 Juli, Donnerstag

Zeit Temperatur Niederschläge Wind Luftdruck Luftfeuchtigkeit
00:00 +14°C° 0 mm 2 m/S 745 mmHg 87%
01:00 +13°C° 0 mm 2 m/S 745 mmHg 87%
02:00 +13°C° 0 mm 2 m/S 745 mmHg 88%
03:00 +13°C° 0 mm 2 m/S 745 mmHg 87%
04:00 +13°C° 0 mm 2 m/S 745 mmHg 87%
05:00 +13°C° 0 mm 2 m/S 745 mmHg 87%
06:00 +14°C° 0 mm 2 m/S 745 mmHg 81%
07:00 +16°C° 0 mm 2 m/S 745 mmHg 74%
08:00 +18°C° 0 mm 2 m/S 745 mmHg 68%
09:00 +19°C° 0 mm 2 m/S 745 mmHg 63%
10:00 +21°C° 0 mm 2 m/S 745 mmHg 58%
11:00 +23°C° 0 mm 2 m/S 745 mmHg 53%
12:00 +23°C° 0 mm 2 m/S 745 mmHg 51%
13:00 +24°C° 0 mm 2 m/S 744 mmHg 50%
14:00 +24°C° 0 mm 2 m/S 744 mmHg 49%
15:00 +25°C° 0 mm 2 m/S 744 mmHg 48%
16:00 +25°C° 0 mm 1 m/S 744 mmHg 47%
17:00 +25°C° 0 mm 1 m/S 744 mmHg 47%
18:00 +23°C° 0 mm 1 m/S 744 mmHg 52%
19:00 +22°C° 0 mm 1 m/S 743 mmHg 57%
20:00 +20°C° 0 mm 1 m/S 743 mmHg 62%
21:00 +20°C° 0 mm 1 m/S 743 mmHg 63%
22:00 +19°C° 0 mm 1 m/S 744 mmHg 64%
23:00 +18°C° 0 mm 1 m/S 744 mmHg 65%
Mehr zeigen